QPF
0.00 0.00 0.00 0.00 0.00 0.00 0.00 0.00 0.00 0.00 0.00 0.00 0.00 0.00 0.00 0.00 0.00 0.00 0.01 0.01 0.01 0.01 0.02 0.02 0.03 0.03 0.04 0.04 0.02 0.02 0.02 0.01 0.01 0.01 0.01 0.01 0.00 0.01 0.01 0.02 0.02 0.01 0.02 0.02
0.00 0.00 0.00 0.00 0.00 0.00 0.00 0.00 0.00 0.00 0.00 0.00 0.00 0.00 0.00 0.00 0.00 0.00 0.00 0.00 0.00 0.00 0.01 0.01 0.01 0.01 0.01 0.01 0.00 0.00 0.00 0.00 0.00 0.00 0.00 0.00 0.00 0.00 0.00 0.01 0.01 0.00 0.01 0.01
0.00 0.00 0.00 0.00 0.00 0.00 0.00 0.00 0.00 0.00 0.00 0.00 0.00 0.00 0.00 0.00 0.00 0.00 0.00 0.00 0.00 0.00 0.00 0.00 0.00 0.00 0.00 0.00 0.00 0.00 0.00 0.00 0.00 0.00 0.00 0.00 0.00 0.00 0.00 0.00 0.00 0.00 0.00 0.00
0.00 0.00 0.00 0.00 0.00 0.00 0.00 0.00 0.00 0.00 0.00 0.00 0.00 0.00 0.00 0.00 0.00 0.00 0.00 0.00 0.00 0.00 0.00 0.00 0.00 0.00 0.00 0.00 0.00 0.00 0.00 0.00 0.00 0.00 0.00 0.00 0.00 0.00 0.00 0.00 0.00 0.00 0.00 0.00
0.00 0.00 0.00 0.00 0.00 0.00 0.00 0.00 0.00 0.00 0.00 0.00 0.00 0.00 0.00 0.00 0.00 0.00 0.00 0.00 0.00 0.00 0.00 0.00 0.00 0.00 0.00 0.00 0.00 0.00 0.00 0.00 0.00 0.00 0.00 0.00 0.00 0.00 0.00 0.00 0.00 0.00 0.00 0.00
0.00 0.00 0.00 0.00 0.00 0.00 0.00 0.00 0.00 0.00 0.00 0.00 0.00 0.00 0.00 0.00 0.00 0.00 0.00 0.00 0.00 0.00 0.00 0.00 0.00 0.00 0.00 0.00 0.00 0.00 0.00 0.00 0.00 0.00 0.00 0.00 0.00 0.00 0.00 0.00 0.00 0.00 0.00 0.00
0.00 0.00 0.00 0.00 0.00 0.00 0.00 0.00 0.00 0.00 0.00 0.00 0.00 0.00 0.00 0.00 0.00 0.00 0.00 0.00 0.00 0.00 0.00 0.00 0.00 0.00 0.00 0.00 0.00 0.00 0.00 0.00 0.00 0.00 0.00 0.00 0.00 0.00 0.00 0.00 0.00 0.00 0.00 0.00
0.00 0.00 0.00 0.00 0.00 0.00 0.00 0.00 0.00 0.00 0.00 0.00 0.00 0.00 0.00 0.00 0.00 0.00 0.00 0.00 0.00 0.00 0.00 0.00 0.00 0.00 0.00 0.00 0.00 0.00 0.00 0.00 0.00 0.00 0.00 0.00 0.00 0.00 0.00 0.00 0.00 0.00 0.00 0.00
0.00 0.00 0.00 0.00 0.00 0.00 0.00 0.00 0.00 0.00 0.00 0.00 0.00 0.00 0.00 0.00 0.00 0.00 0.00 0.00 0.00 0.00 0.00 0.00 0.00 0.00 0.00 0.00 0.00 0.00 0.00 0.00 0.00 0.00 0.00 0.00 0.00 0.00 0.00 0.00 0.00 0.00 0.00 0.00
0.00 0.00 0.00 0.00 0.00 0.00 0.00 0.00 0.00 0.00 0.00 0.00 0.00 0.00 0.00 0.00 0.00 0.00 0.00 0.00 0.00 0.00 0.00 0.00 0.00 0.00 0.00 0.00 0.00 0.00 0.00 0.00 0.00 0.00 0.00 0.00 0.00 0.00 0.00 0.00 0.00 0.00 0.00 0.00
0.00 0.00 0.00 0.00 0.00 0.00 0.00 0.00 0.00 0.00 0.00 0.00 0.00 0.00 0.00 0.00 0.00 0.00 0.00 0.00 0.00 0.00 0.00 0.00 0.00 0.00 0.00 0.00 0.00 0.00 0.00 0.00 0.00 0.00 0.00 0.00 0.00 0.00 0.00 0.00 0.00 0.00 0.00 0.00
0.00 0.00 0.00 0.00 0.00 0.00 0.00 0.00 0.00 0.00 0.00 0.00 0.00 0.00 0.00 0.00 0.00 0.00 0.00 0.00 0.00 0.00 0.00 0.00 0.00 0.00 0.00 0.00 0.00 0.00 0.00 0.00 0.00 0.00 0.00 0.00 0.00 0.00 0.00 0.00 0.00 0.00 0.00 0.00
0.00 0.00 0.00 0.00 0.00 0.00 0.00 0.00 0.00 0.00 0.00 0.00 0.00 0.00 0.00 0.00 0.00 0.00 0.00 0.00 0.00 0.00 0.00 0.00 0.00 0.00 0.00 0.00 0.00 0.00 0.00 0.00 0.00 0.00 0.00 0.00 0.00 0.00 0.00 0.00 0.00 0.00 0.00 0.00
0.00 0.00 0.00 0.00 0.00 0.00 0.00 0.00 0.00 0.00 0.00 0.00 0.00 0.00 0.00 0.00 0.00 0.00 0.00 0.00 0.00 0.00 0.00 0.00 0.00 0.00 0.00 0.00 0.00 0.00 0.00 0.00 0.00 0.00 0.00 0.00 0.00 0.00 0.00 0.00 0.00 0.00 0.00 0.00
0.00 0.00 0.00 0.00 0.00 0.00 0.00 0.00 0.00 0.00 0.00 0.00 0.00 0.00 0.00 0.00 0.00 0.00 0.00 0.00 0.00 0.00 0.00 0.00 0.00 0.00 0.00 0.00 0.00 0.00 0.00 0.00 0.00 0.00 0.00 0.00 0.00 0.00 0.00 0.00 0.00 0.00 0.00 0.00
0.00 0.00 0.00 0.00 0.00 0.00 0.00 0.00 0.00 0.00 0.00 0.00 0.00 0.00 0.00 0.00 0.00 0.00 0.00 0.00 0.00 0.00 0.00 0.00 0.00 0.00 0.00 0.00 0.00 0.00 0.00 0.00 0.00 0.00 0.00 0.00 0.00 0.00 0.00 0.00 0.00 0.00 0.00 0.00
0.00 0.00 0.00 0.00 0.00 0.00 0.00 0.00 0.00 0.00 0.00 0.00 0.00 0.00 0.00 0.00 0.00 0.00 0.00 0.00 0.00 0.00 0.00 0.00 0.00 0.00 0.00 0.00 0.00 0.00 0.00 0.00 0.00 0.00 0.00 0.00 0.00 0.00 0.00 0.00 0.00 0.00 0.00 0.00
0.00 0.00 0.00 0.00 0.00 0.00 0.00 0.00 0.00 0.00 0.00 0.00 0.00 0.00 0.00 0.00 0.00 0.00 0.00 0.00 0.00 0.00 0.00 0.00 0.00 0.00 0.00 0.00 0.00 0.00 0.00 0.00 0.00 0.00 0.00 0.00 0.00 0.00 0.00 0.00 0.00 0.00 0.00 0.00
0.00 0.00 0.00 0.00 0.00 0.00 0.00 0.00 0.00 0.00 0.00 0.00 0.00 0.00 0.00 0.00 0.00 0.00 0.00 0.00 0.00 0.00 0.00 0.00 0.00 0.00 0.00 0.00 0.00 0.00 0.00 0.00 0.00 0.00 0.00 0.00 0.00 0.00 0.00 0.00 0.00 0.00 0.00 0.00
0.00 0.00 0.00 0.00 0.00 0.00 0.00 0.00 0.00 0.00 0.00 0.00 0.00 0.00 0.00 0.00 0.00 0.00 0.00 0.00 0.00 0.00 0.00 0.00 0.00 0.00 0.00 0.00 0.00 0.00 0.00 0.00 0.00 0.00 0.00 0.00 0.00 0.00 0.00 0.00 0.00 0.00 0.00 0.00
0.00 0.00 0.00 0.00 0.00 0.00 0.00 0.00 0.00 0.00 0.00 0.00 0.00 0.00 0.00 0.00 0.00 0.00 0.00 0.00 0.00 0.00 0.00 0.00 0.00 0.00 0.00 0.00 0.00 0.00 0.00 0.00 0.00 0.00 0.00 0.00 0.00 0.00 0.00 0.00 0.00 0.00 0.00 0.00
0.00 0.00 0.00 0.00 0.00 0.00 0.00 0.00 0.00 0.00 0.00 0.00 0.00 0.00 0.00 0.00 0.00 0.00 0.00 0.00 0.00 0.00 0.00 0.00 0.00 0.00 0.00 0.00 0.00 0.00 0.00 0.00 0.00 0.00 0.00 0.00 0.00 0.00 0.00 0.00 0.00 0.00 0.00 0.00
0.00 0.00 0.00 0.00 0.00 0.00 0.00 0.00 0.00 0.00 0.00 0.00 0.00 0.00 0.00 0.00 0.00 0.00 0.00 0.00 0.00 0.00 0.00 0.00 0.00 0.00 0.00 0.00 0.00 0.00 0.00 0.00 0.00 0.00 0.00 0.00 0.00 0.00 0.00 0.00 0.00 0.00 0.00 0.00
0.00 0.00 0.00 0.00 0.00 0.00 0.00 0.00 0.00 0.00 0.00 0.00 0.00 0.00 0.00 0.00 0.00 0.00 0.00 0.00 0.00 0.00 0.00 0.00 0.00 0.00 0.00 0.00 0.00 0.00 0.00 0.00 0.00 0.00 0.00 0.00 0.00 0.00 0.00 0.00 0.00 0.00 0.00 0.00
0.00 0.00 0.00 0.00 0.00 0.00 0.00 0.00 0.00 0.00 0.00 0.00 0.00 0.00 0.00 0.00 0.00 0.00 0.00 0.00 0.00 0.00 0.00 0.00 0.00 0.00 0.00 0.00 0.00 0.00 0.00 0.00 0.00 0.00 0.00 0.00 0.00 0.00 0.00 0.00 0.00 0.00 0.00 0.00
0.00 0.00 0.00 0.00 0.00 0.00 0.00 0.00 0.00 0.00 0.00 0.00 0.00 0.00 0.00 0.00 0.00 0.00 0.00 0.00 0.00 0.00 0.00 0.00 0.00 0.00 0.00 0.00 0.00 0.00 0.00 0.00 0.00 0.00 0.00 0.00 0.00 0.00 0.00 0.00 0.00 0.00 0.00 0.00
0.00 0.00 0.00 0.00 0.00 0.00 0.00 0.00 0.00 0.00 0.00 0.00 0.00 0.00 0.00 0.00 0.00 0.00 0.00 0.00 0.00 0.00 0.00 0.00 0.00 0.00 0.00 0.00 0.00 0.00 0.00 0.00 0.00 0.00 0.00 0.00 0.00 0.00 0.00 0.00 0.00 0.00 0.00 0.00
MSLP
1022.43 1022.70 1022.95 1023.18 1023.38 1023.55 1023.69 1023.78 1023.82 1023.79 1023.70 1023.53 1023.29 1022.99 1022.65 1022.27 1021.89 1021.51 1021.16 1020.85 1020.58 1020.34 1020.13 1019.93 1019.72 1019.51 1019.27 1019.01 1018.73 1018.43 1018.12 1017.82 1017.52 1017.23 1016.96 1016.70 1016.47 1016.26 1016.06 1015.89 1015.73 1015.60 1015.48 1015.37
1022.33 1022.53 1022.69 1022.81 1022.91 1022.98 1023.03 1023.07 1023.08 1023.07 1023.02 1022.91 1022.76 1022.54 1022.28 1021.97 1021.64 1021.30 1020.98 1020.68 1020.42 1020.19 1020.00 1019.84 1019.70 1019.55 1019.40 1019.22 1019.02 1018.79 1018.55 1018.28 1018.01 1017.73 1017.46 1017.20 1016.95 1016.73 1016.52 1016.33 1016.17 1016.02 1015.89 1015.77
1022.20 1022.30 1022.34 1022.34 1022.31 1022.27 1022.24 1022.23 1022.23 1022.24 1022.25 1022.23 1022.17 1022.07 1021.90 1021.68 1021.41 1021.12 1020.82 1020.53 1020.27 1020.05 1019.87 1019.73 1019.63 1019.54 1019.46 1019.36 1019.24 1019.09 1018.91 1018.70 1018.46 1018.21 1017.95 1017.69 1017.44 1017.20 1016.98 1016.78 1016.60 1016.44 1016.29 1016.15
1022.04 1022.03 1021.94 1021.80 1021.65 1021.50 1021.40 1021.34 1021.34 1021.38 1021.46 1021.54 1021.59 1021.60 1021.55 1021.42 1021.23 1020.99 1020.71 1020.43 1020.17 1019.94 1019.76 1019.63 1019.55 1019.50 1019.47 1019.45 1019.40 1019.33 1019.22 1019.07 1018.89 1018.67 1018.44 1018.19 1017.94 1017.70 1017.47 1017.26 1017.06 1016.87 1016.70 1016.54
1021.83 1021.69 1021.48 1021.22 1020.95 1020.72 1020.55 1020.46 1020.46 1020.55 1020.69 1020.87 1021.04 1021.16 1021.22 1021.20 1021.09 1020.91 1020.67 1020.40 1020.13 1019.90 1019.71 1019.58 1019.51 1019.49 1019.50 1019.52 1019.54 1019.53 1019.49 1019.40 1019.27 1019.11 1018.91 1018.68 1018.45 1018.21 1017.98 1017.75 1017.54 1017.34 1017.14 1016.95
1021.51 1021.27 1020.95 1020.59 1020.23 1019.93 1019.71 1019.61 1019.63 1019.75 1019.97 1020.24 1020.51 1020.75 1020.92 1021.00 1020.97 1020.85 1020.65 1020.41 1020.16 1019.92 1019.73 1019.60 1019.54 1019.53 1019.56 1019.62 1019.68 1019.73 1019.74 1019.71 1019.63 1019.51 1019.35 1019.15 1018.94 1018.72 1018.49 1018.27 1018.05 1017.83 1017.61 1017.39
1021.02 1020.69 1020.30 1019.87 1019.47 1019.13 1018.90 1018.81 1018.85 1019.02 1019.30 1019.65 1020.01 1020.34 1020.61 1020.77 1020.83 1020.78 1020.64 1020.44 1020.21 1019.99 1019.81 1019.69 1019.62 1019.62 1019.67 1019.75 1019.84 1019.92 1019.97 1019.98 1019.95 1019.86 1019.74 1019.58 1019.39 1019.19 1018.99 1018.77 1018.55 1018.33 1018.11 1017.87
1020.31 1019.94 1019.51 1019.07 1018.66 1018.33 1018.12 1018.05 1018.13 1018.35 1018.68 1019.09 1019.52 1019.92 1020.26 1020.50 1020.63 1020.65 1020.58 1020.43 1020.25 1020.07 1019.91 1019.80 1019.75 1019.76 1019.82 1019.91 1020.01 1020.11 1020.18 1020.21 1020.20 1020.15 1020.06 1019.93 1019.78 1019.61 1019.43 1019.23 1019.03 1018.83 1018.61 1018.37
1019.37 1018.99 1018.57 1018.17 1017.81 1017.53 1017.38 1017.36 1017.49 1017.75 1018.12 1018.56 1019.03 1019.47 1019.86 1020.16 1020.35 1020.44 1020.43 1020.35 1020.23 1020.10 1019.99 1019.91 1019.88 1019.91 1019.97 1020.07 1020.17 1020.26 1020.34 1020.38 1020.38 1020.35 1020.28 1020.18 1020.06 1019.92 1019.77 1019.62 1019.45 1019.28 1019.08 1018.87
1018.23 1017.88 1017.53 1017.21 1016.94 1016.76 1016.69 1016.75 1016.93 1017.24 1017.63 1018.09 1018.56 1019.02 1019.42 1019.75 1019.98 1020.12 1020.17 1020.16 1020.11 1020.04 1019.99 1019.96 1019.96 1020.00 1020.08 1020.17 1020.26 1020.35 1020.41 1020.45 1020.45 1020.43 1020.37 1020.30 1020.21 1020.11 1020.01 1019.90 1019.79 1019.66 1019.50 1019.33
1016.98 1016.70 1016.45 1016.24 1016.10 1016.04 1016.09 1016.23 1016.48 1016.82 1017.23 1017.68 1018.14 1018.58 1018.97 1019.30 1019.54 1019.71 1019.82 1019.86 1019.87 1019.88 1019.88 1019.90 1019.94 1020.01 1020.09 1020.18 1020.26 1020.33 1020.38 1020.40 1020.40 1020.37 1020.33 1020.28 1020.22 1020.17 1020.12 1020.06 1020.00 1019.93 1019.84 1019.72
1015.73 1015.54 1015.40 1015.33 1015.33 1015.41 1015.57 1015.82 1016.13 1016.51 1016.92 1017.35 1017.78 1018.18 1018.54 1018.84 1019.07 1019.26 1019.38 1019.47 1019.54 1019.60 1019.66 1019.73 1019.80 1019.89 1019.98 1020.07 1020.14 1020.19 1020.22 1020.22 1020.21 1020.18 1020.15 1020.12 1020.10 1020.08 1020.08 1020.09 1020.09 1020.08 1020.06 1020.00
1014.58 1014.47 1014.45 1014.51 1014.65 1014.86 1015.14 1015.48 1015.86 1016.27 1016.68 1017.10 1017.48 1017.83 1018.14 1018.40 1018.61 1018.78 1018.92 1019.03 1019.14 1019.23 1019.34 1019.44 1019.55 1019.65 1019.75 1019.83 1019.89 1019.92 1019.93 1019.92 1019.90 1019.88 1019.85 1019.84 1019.85 1019.88 1019.92 1019.98 1020.04 1020.10 1020.14 1020.15
1013.59 1013.55 1013.62 1013.78 1014.03 1014.35 1014.74 1015.16 1015.60 1016.04 1016.47 1016.86 1017.21 1017.52 1017.78 1018.00 1018.18 1018.32 1018.46 1018.58 1018.70 1018.82 1018.95 1019.08 1019.20 1019.32 1019.41 1019.49 1019.54 1019.56 1019.55 1019.54 1019.51 1019.48 1019.47 1019.48 1019.51 1019.57 1019.65 1019.75 1019.86 1019.97 1020.07 1020.13
1012.79 1012.78 1012.89 1013.11 1013.43 1013.83 1014.29 1014.78 1015.27 1015.74 1016.18 1016.58 1016.91 1017.19 1017.42 1017.61 1017.76 1017.89 1018.01 1018.13 1018.26 1018.39 1018.53 1018.67 1018.80 1018.92 1019.01 1019.08 1019.12 1019.13 1019.12 1019.10 1019.07 1019.05 1019.04 1019.06 1019.11 1019.19 1019.30 1019.43 1019.57 1019.71 1019.84 1019.95
1012.18 1012.13 1012.23 1012.45 1012.79 1013.22 1013.72 1014.24 1014.78 1015.28 1015.75 1016.16 1016.50 1016.78 1017.01 1017.18 1017.33 1017.46 1017.58 1017.70 1017.83 1017.97 1018.11 1018.25 1018.39 1018.50 1018.59 1018.65 1018.69 1018.69 1018.68 1018.65 1018.62 1018.60 1018.61 1018.63 1018.69 1018.78 1018.89 1019.03 1019.17 1019.33 1019.48 1019.61
1011.71 1011.58 1011.60 1011.77 1012.07 1012.48 1012.97 1013.51 1014.06 1014.60 1015.10 1015.54 1015.92 1016.23 1016.48 1016.68 1016.84 1016.99 1017.12 1017.26 1017.40 1017.55 1017.71 1017.85 1017.99 1018.10 1018.19 1018.25 1018.28 1018.28 1018.26 1018.24 1018.21 1018.19 1018.19 1018.22 1018.27 1018.35 1018.45 1018.57 1018.71 1018.85 1019.00 1019.13
1011.37 1011.11 1011.00 1011.06 1011.27 1011.61 1012.06 1012.57 1013.13 1013.68 1014.21 1014.70 1015.12 1015.48 1015.79 1016.04 1016.26 1016.45 1016.62 1016.79 1016.96 1017.13 1017.30 1017.46 1017.60 1017.73 1017.82 1017.88 1017.91 1017.91 1017.90 1017.88 1017.85 1017.83 1017.83 1017.84 1017.87 1017.93 1018.01 1018.10 1018.20 1018.32 1018.44 1018.56
1011.16 1010.74 1010.47 1010.38 1010.45 1010.69 1011.05 1011.51 1012.03 1012.58 1013.13 1013.66 1014.13 1014.56 1014.93 1015.25 1015.54 1015.79 1016.03 1016.25 1016.47 1016.68 1016.88 1017.07 1017.23 1017.37 1017.48 1017.55 1017.59 1017.60 1017.59 1017.57 1017.54 1017.52 1017.50 1017.50 1017.51 1017.53 1017.57 1017.62 1017.68 1017.75 1017.84 1017.93
1011.13 1010.53 1010.09 1009.83 1009.75 1009.84 1010.09 1010.46 1010.92 1011.44 1011.99 1012.52 1013.04 1013.51 1013.95 1014.34 1014.70 1015.02 1015.33 1015.62 1015.90 1016.16 1016.41 1016.63 1016.83 1017.00 1017.14 1017.23 1017.29 1017.31 1017.31 1017.29 1017.27 1017.23 1017.20 1017.18 1017.16 1017.15 1017.15 1017.16 1017.17 1017.20 1017.24 1017.30
1011.31 1010.56 1009.96 1009.53 1009.28 1009.23 1009.34 1009.60 1009.97 1010.43 1010.93 1011.45 1011.96 1012.46 1012.93 1013.37 1013.78 1014.17 1014.54 1014.89 1015.23 1015.55 1015.86 1016.14 1016.38 1016.59 1016.75 1016.88 1016.96 1017.01 1017.02 1017.01 1016.98 1016.95 1016.91 1016.86 1016.82 1016.78 1016.74 1016.71 1016.68 1016.67 1016.67 1016.69
1011.74 1010.88 1010.15 1009.59 1009.20 1009.00 1008.98 1009.10 1009.35 1009.71 1010.12 1010.57 1011.04 1011.51 1011.98 1012.42 1012.86 1013.28 1013.69 1014.09 1014.49 1014.86 1015.22 1015.55 1015.84 1016.10 1016.31 1016.46 1016.58 1016.64 1016.68 1016.68 1016.66 1016.62 1016.58 1016.52 1016.47 1016.40 1016.34 1016.28 1016.22 1016.17 1016.14 1016.13
1012.43 1011.51 1010.71 1010.06 1009.57 1009.25 1009.09 1009.08 1009.19 1009.41 1009.70 1010.04 1010.42 1010.81 1011.21 1011.61 1012.02 1012.44 1012.86 1013.28 1013.70 1014.12 1014.51 1014.89 1015.22 1015.52 1015.77 1015.96 1016.10 1016.19 1016.25 1016.27 1016.26 1016.23 1016.19 1016.13 1016.07 1016.00 1015.93 1015.86 1015.78 1015.71 1015.65 1015.62
1013.31 1012.42 1011.62 1010.93 1010.38 1009.98 1009.71 1009.57 1009.54 1009.60 1009.74 1009.93 1010.16 1010.43 1010.71 1011.03 1011.37 1011.73 1012.11 1012.52 1012.94 1013.36 1013.78 1014.17 1014.54 1014.86 1015.14 1015.36 1015.53 1015.65 1015.72 1015.76 1015.77 1015.75 1015.72 1015.67 1015.62 1015.56 1015.49 1015.42 1015.34 1015.27 1015.19 1015.14
1014.29 1013.49 1012.76 1012.10 1011.55 1011.10 1010.76 1010.51 1010.35 1010.26 1010.23 1010.24 1010.31 1010.41 1010.55 1010.73 1010.95 1011.22 1011.53 1011.88 1012.27 1012.67 1013.07 1013.46 1013.84 1014.17 1014.46 1014.70 1014.89 1015.02 1015.11 1015.16 1015.19 1015.19 1015.17 1015.15 1015.11 1015.06 1015.01 1014.95 1014.88 1014.81 1014.74 1014.68
1015.24 1014.59 1013.98 1013.41 1012.91 1012.47 1012.09 1011.76 1011.49 1011.26 1011.07 1010.92 1010.81 1010.74 1010.71 1010.74 1010.82 1010.97 1011.18 1011.44 1011.75 1012.09 1012.46 1012.82 1013.17 1013.50 1013.78 1014.02 1014.21 1014.35 1014.45 1014.51 1014.55 1014.56 1014.56 1014.55 1014.54 1014.51 1014.48 1014.44 1014.39 1014.33 1014.26 1014.20
1016.02 1015.55 1015.10 1014.66 1014.25 1013.85 1013.48 1013.12 1012.78 1012.45 1012.13 1011.83 1011.56 1011.33 1011.14 1011.02 1010.96 1010.97 1011.06 1011.22 1011.44 1011.71 1012.00 1012.31 1012.62 1012.90 1013.16 1013.37 1013.55 1013.68 1013.77 1013.83 1013.87 1013.90 1013.91 1013.92 1013.92 1013.92 1013.91 1013.89 1013.85 1013.80 1013.75 1013.68
Thickness
5693 5688 5684 5678 5671 5665 5664 5664 5660 5655 5650 5651 5651 5647 5646 5645 5643 5643 5642 5642 5641 5641 5640 5640 5639 5639 5638 5637 5637 5636 5636 5635 5635 5636 5636 5637 5638 5638 5639 5640 5641 5642 5644 5645
5693 5688 5685 5681 5677 5671 5667 5665 5662 5658 5656 5663 5661 5656 5653 5652 5649 5647 5647 5646 5646 5646 5645 5644 5644 5643 5641 5640 5639 5639 5637 5636 5635 5636 5636 5636 5635 5635 5635 5634 5635 5635 5636 5637
5702 5692 5688 5690 5695 5683 5679 5677 5672 5666 5670 5669 5663 5660 5659 5657 5655 5653 5652 5652 5652 5651 5650 5649 5648 5647 5644 5642 5642 5641 5639 5637 5636 5636 5635 5634 5633 5632 5631 5630 5629 5629 5628 5628
5705 5696 5691 5706 5706 5700 5690 5687 5685 5681 5678 5674 5670 5669 5667 5665 5662 5661 5659 5658 5657 5657 5656 5655 5654 5651 5649 5646 5645 5643 5640 5638 5636 5636 5634 5633 5631 5629 5628 5627 5625 5623 5622 5622
5707 5705 5708 5709 5706 5701 5693 5694 5698 5690 5685 5681 5678 5674 5674 5673 5670 5667 5665 5664 5663 5662 5661 5660 5658 5656 5654 5651 5648 5644 5641 5639 5637 5636 5633 5631 5629 5627 5625 5623 5621 5620 5617 5616
5706 5703 5708 5718 5718 5714 5704 5699 5712 5703 5694 5688 5681 5676 5678 5679 5675 5673 5670 5669 5667 5667 5666 5664 5661 5659 5657 5654 5650 5645 5642 5640 5638 5635 5632 5629 5627 5625 5623 5621 5619 5617 5614 5613
5710 5709 5723 5728 5720 5712 5699 5715 5721 5713 5705 5696 5690 5691 5688 5683 5680 5677 5674 5672 5671 5670 5669 5666 5665 5663 5660 5657 5651 5647 5643 5640 5638 5635 5632 5628 5626 5624 5623 5620 5618 5616 5614 5611
5716 5712 5721 5728 5720 5717 5728 5731 5726 5719 5713 5705 5700 5695 5690 5686 5683 5681 5679 5676 5674 5673 5671 5669 5667 5665 5662 5657 5653 5649 5645 5641 5638 5635 5633 5630 5626 5624 5622 5620 5618 5615 5613 5610
5732 5738 5743 5738 5739 5741 5740 5734 5730 5724 5718 5711 5703 5697 5693 5690 5688 5685 5683 5680 5678 5676 5674 5673 5670 5667 5664 5659 5655 5651 5647 5643 5640 5637 5633 5630 5627 5625 5622 5619 5617 5614 5611 5609
5736 5747 5746 5741 5743 5741 5739 5737 5734 5730 5722 5715 5708 5703 5698 5694 5691 5688 5686 5684 5681 5679 5677 5675 5673 5670 5667 5663 5658 5655 5650 5646 5643 5640 5637 5633 5628 5626 5623 5620 5617 5614 5611 5609
5740 5752 5747 5744 5745 5744 5740 5738 5735 5731 5726 5719 5713 5708 5703 5699 5695 5693 5689 5687 5685 5683 5680 5678 5676 5673 5670 5666 5662 5659 5655 5650 5647 5642 5639 5635 5632 5626 5623 5618 5614 5612 5611 5610
5750 5763 5759 5759 5758 5751 5743 5738 5735 5730 5725 5722 5717 5712 5707 5703 5700 5696 5693 5691 5688 5685 5682 5681 5679 5676 5673 5669 5666 5664 5660 5656 5651 5647 5643 5640 5637 5633 5623 5620 5615 5612 5609 5608
5767 5764 5763 5760 5758 5754 5749 5744 5740 5734 5729 5723 5719 5716 5711 5706 5702 5698 5695 5693 5691 5688 5686 5684 5681 5679 5676 5672 5670 5667 5664 5661 5656 5652 5649 5645 5642 5639 5635 5627 5621 5617 5614 5611
5760 5757 5755 5755 5755 5753 5750 5747 5742 5737 5732 5727 5722 5717 5713 5709 5705 5701 5698 5697 5694 5691 5688 5686 5684 5681 5679 5675 5673 5670 5668 5663 5660 5656 5653 5651 5648 5645 5642 5638 5635 5630 5622 5617
5756 5756 5759 5758 5756 5751 5749 5745 5739 5735 5732 5728 5723 5718 5713 5709 5706 5704 5702 5699 5696 5693 5691 5688 5685 5683 5680 5678 5676 5674 5671 5668 5665 5662 5658 5656 5653 5650 5647 5644 5641 5637 5634 5628
5757 5753 5752 5750 5750 5748 5745 5742 5739 5736 5733 5728 5723 5719 5716 5713 5709 5706 5703 5700 5697 5695 5694 5691 5688 5686 5682 5680 5678 5676 5673 5668 5665 5665 5663 5661 5658 5655 5653 5650 5647 5644 5641 5638
5751 5748 5746 5746 5748 5747 5746 5744 5742 5739 5735 5730 5725 5721 5717 5712 5709 5706 5703 5701 5699 5698 5696 5693 5691 5688 5684 5682 5680 5679 5677 5673 5665 5666 5667 5666 5663 5661 5658 5655 5653 5650 5647 5643
5756 5758 5757 5756 5753 5749 5746 5745 5743 5740 5736 5732 5727 5721 5717 5713 5710 5707 5705 5702 5699 5697 5696 5695 5693 5689 5686 5684 5682 5681 5679 5677 5674 5673 5671 5668 5667 5665 5663 5660 5658 5655 5653 5648
5746 5749 5752 5753 5753 5751 5747 5744 5742 5740 5737 5732 5726 5721 5718 5715 5713 5710 5707 5703 5699 5697 5698 5696 5691 5689 5687 5685 5681 5679 5679 5678 5676 5675 5673 5669 5667 5668 5667 5665 5663 5661 5658 5655
5731 5737 5741 5744 5745 5744 5744 5742 5739 5736 5734 5730 5725 5720 5717 5714 5712 5709 5706 5702 5701 5701 5700 5697 5692 5689 5688 5686 5679 5681 5680 5678 5677 5676 5675 5673 5672 5672 5671 5669 5667 5665 5663 5660
5715 5722 5727 5731 5734 5735 5736 5736 5733 5731 5729 5726 5723 5719 5716 5714 5711 5707 5703 5700 5702 5700 5696 5691 5690 5689 5687 5685 5678 5680 5679 5678 5677 5676 5675 5674 5674 5673 5672 5671 5670 5668 5666 5665
5696 5705 5712 5718 5722 5725 5727 5728 5727 5724 5723 5720 5718 5716 5713 5710 5708 5704 5703 5701 5702 5697 5693 5691 5689 5687 5685 5680 5679 5678 5677 5676 5675 5675 5674 5673 5673 5673 5673 5672 5671 5670 5669 5667
5674 5684 5694 5701 5708 5713 5715 5716 5717 5716 5715 5714 5712 5710 5709 5707 5705 5701 5698 5699 5697 5692 5690 5690 5688 5684 5679 5676 5677 5676 5675 5674 5673 5673 5672 5672 5671 5671 5671 5671 5671 5670 5669 5668
5648 5658 5668 5679 5688 5694 5698 5701 5703 5704 5704 5704 5704 5704 5702 5700 5699 5699 5698 5695 5692 5688 5687 5686 5681 5678 5673 5675 5675 5674 5673 5671 5670 5670 5669 5669 5669 5669 5668 5668 5668 5668 5667 5666
5619 5629 5639 5649 5658 5666 5674 5680 5683 5686 5687 5689 5691 5691 5692 5692 5691 5690 5688 5687 5683 5680 5680 5679 5675 5672 5670 5672 5671 5670 5670 5669 5667 5666 5665 5664 5664 5664 5664 5665 5664 5665 5665 5664
5587 5597 5606 5616 5624 5633 5644 5652 5659 5664 5668 5670 5673 5675 5676 5676 5677 5677 5676 5675 5674 5671 5671 5671 5670 5666 5667 5667 5666 5665 5665 5664 5661 5659 5659 5659 5659 5659 5659 5660 5660 5660 5660 5661
5557 5566 5575 5585 5594 5602 5612 5622 5630 5637 5643 5649 5653 5655 5657 5659 5660 5661 5661 5662 5662 5661 5661 5661 5661 5661 5661 5660 5659 5658 5658 5657 5656 5655 5655 5654 5654 5654 5654 5654 5654 5655 5655 5655